Montreal-Pierre Elliott T, Canada

12:55 PM EST on February 07, 2016 (GMT -0500)
Montreal International (Dorval)

Weather History for CYUL - May, 2013

Change the Weather History Date:

Friday, May 3, 2013

  Actual Average Record
Temperature  
Mean Temperature 59 °F -  
Max Temperature 72 °F 61 °F 82 °F (2001)
Min Temperature 46 °F 42 °F 35 °F (2002)
Degree Days  
Heating Degree Days 6    
Growing Degree Days 9 (Base 50)    
Moisture  
Dew Point 38 °F    
Average Humidity 45    
Maximum Humidity 82    
Minimum Humidity 17    
Precipitation  
Precipitation 0.00 in - - ()
Sea Level Pressure  
Sea Level Pressure 30.40 in    
Wind  
Wind Speed 12 mph ()    
Max Wind Speed 21 mph    
Max Gust Speed 25 mph    
Visibility 15.0 miles    
Events      
Averages and records for this station are not official NWS values.
T = Trace of Precipitation, MM = Missing Value Source: Averaged Metar Reports

Daily Weather History Graph

Daily Weather History Graph

Search for Another Location

Airport or City:

Trip Planner

Search our weather history database for the weather conditions in past years. The results will help you decide how hot, cold, wet, or windy it might be!

Date:

Astronomy

May. 03, 2013 Rise Set
Actual Time 5:39 AM EDT 8:04 PM EDT
Civil Twilight 5:06 AM EDT 8:37 PM EDT
Nautical Twilight 4:25 AM EDT 9:19 PM EDT
Astronomical Twilight 3:39 AM EDT 10:05 PM EDT
Moon 2:21 AM EDT (5/3) 1:38 PM EDT (5/3)
Length of Visible Light 15h 30m
Length of Day
14h 24m
Last Quarter, 37% of the Moon is Illuminated
May 3
Last Quarter
May 9
New
May 18
First Quarter
May 25
Full
May 31
Last Quarter

Hourly Weather History & Observations

Time (EDT) Temp. Dew Point Humidity Pressure Visibility Wind Dir Wind Speed Gust Speed Precip Events Conditions
12:00 AM 55.4 °F 46.4 °F 72% 30.38 in 15.0 mi NNE 20.7 mph - N/A   Clear
1:00 AM 53.6 °F 44.6 °F 72% 30.38 in 15.0 mi NNE 18.4 mph 25.3 mph N/A   Clear
2:00 AM 51 °F 44 °F 69% 30.39 in 15 mi NNE 17.3 mph - -  
2:00 AM 51.8 °F 44.6 °F 76% 30.39 in 15.0 mi NNE 16.1 mph 24.2 mph N/A   Clear
3:00 AM 50.0 °F 42.8 °F 76% 30.40 in 15.0 mi NE 12.7 mph - N/A   Clear
4:00 AM 50.0 °F 42.8 °F 76% 30.42 in 15.0 mi NNE 15.0 mph - N/A   Clear
5:00 AM 48.2 °F 42.8 °F 82% 30.44 in 15.0 mi NNE 10.4 mph - N/A   Clear
6:00 AM 50.0 °F 41.0 °F 71% 30.46 in 30.0 mi ENE 9.2 mph - N/A   Partly Cloudy
7:00 AM 55.4 °F 35.6 °F 47% 30.48 in 30.0 mi East 6.9 mph - N/A   Partly Cloudy
8:00 AM 56 °F 34 °F 31% 30.48 in 28 mi ESE 13.8 mph - -   Clear
8:00 AM 55.4 °F 33.8 °F 44% 30.48 in 30.0 mi ESE 15.0 mph - N/A   Partly Cloudy
9:00 AM 59.0 °F 35.6 °F 42% 30.48 in 30.0 mi SE 13.8 mph - N/A   Clear
10:00 AM 60.8 °F 35.6 °F 39% 30.48 in 30.0 mi ESE 13.8 mph 19.6 mph N/A   Clear
11:00 AM 64.4 °F 35.6 °F 34% 30.47 in 30.0 mi ESE 12.7 mph 21.9 mph N/A   Clear
12:00 PM 64.4 °F 35.6 °F 34% 30.44 in 30.0 mi ENE 9.2 mph 20.7 mph N/A   Clear
1:00 PM 66.2 °F 35.6 °F 32% 30.42 in 30.0 mi East 10.4 mph 18.4 mph N/A   Clear
2:00 PM 70 °F 36 °F 18% 30.40 in 28 mi SE 10.4 mph - -   Clear
2:00 PM 69.8 °F 35.6 °F 28% 30.40 in 30.0 mi ESE 6.9 mph - N/A   Clear
3:00 PM 71.6 °F 33.8 °F 25% 30.38 in 30.0 mi East 10.4 mph 18.4 mph N/A   Clear
4:00 PM 71.6 °F 33.8 °F 25% 30.35 in 30.0 mi ESE 10.4 mph 18.4 mph N/A   Clear
5:00 PM 71.6 °F 33.8 °F 25% 30.34 in 30.0 mi ESE 10.4 mph - N/A   Partly Cloudy
6:00 PM 71.6 °F 33.8 °F 25% 30.33 in 30.0 mi ESE 9.2 mph 17.3 mph N/A   Partly Cloudy
7:00 PM 71.6 °F 33.8 °F 25% 30.32 in 30.0 mi ESE 8.1 mph - N/A   Partly Cloudy
8:00 PM 69 °F 35 °F 17% 30.32 in 28 mi East 5.8 mph - -   Clear
8:00 PM 68.0 °F 33.8 °F 28% 30.32 in 30.0 mi East 4.6 mph - N/A   Partly Cloudy
9:00 PM 62.6 °F 41.0 °F 45% 30.33 in 15.0 mi NE 10.4 mph - N/A   Clear
10:00 PM 62.6 °F 41.0 °F 45% 30.32 in 15.0 mi NE 10.4 mph - N/A   Clear
11:00 PM 60.8 °F 41.0 °F 48% 30.32 in 15.0 mi NE 9.2 mph - N/A   Clear